Time,TemperatureF,DewpointF,PressureIn,WindDirection,WindDirectionDegrees,WindSpeedMPH,WindSpeedGustMPH,Humidity,HourlyPrecipIn,Conditions,Clouds,dailyrainin,SolarRadiationWatts/m^2,SoftwareType,DateUTC
2013-02-19 00:12:00,0.0,-7.0,-100.00,NW,325,18.0,29.0,71,0.00,,,0.00,0.000000,,2013-02-19 06:12:00,
2013-02-19 00:22:00,0.0,-7.0,-100.00,NW,325,18.0,29.0,71,0.00,,,0.00,0.000000,,2013-02-19 06:22:00,
2013-02-19 00:32:00,0.0,-7.0,-100.00,NW,325,18.0,29.0,71,0.00,,,0.00,0.000000,,2013-02-19 06:32:00,
2013-02-19 00:42:00,0.0,-7.0,-100.00,NW,325,18.0,29.0,71,0.00,,,0.00,0.000000,,2013-02-19 06:42:00,
2013-02-19 00:51:00,1.0,-6.0,-100.00,NW,324,19.0,30.0,71,0.00,,,0.00,0.000000,,2013-02-19 06:51:00,
2013-02-19 01:22:00,1.0,-6.0,-100.00,NW,324,19.0,30.0,71,0.00,,,0.00,0.000000,,2013-02-19 07:22:00,
2013-02-19 01:32:00,1.0,-6.0,-100.00,NW,324,19.0,30.0,71,0.00,,,0.00,0.000000,,2013-02-19 07:32:00,
2013-02-19 01:42:00,1.0,-6.0,-100.00,NW,324,19.0,30.0,71,0.00,,,0.00,0.000000,,2013-02-19 07:42:00,
2013-02-19 01:51:00,1.0,-6.0,-100.00,NNW,327,16.0,31.0,71,0.00,,,0.00,0.000000,,2013-02-19 07:51:00,
2013-02-19 02:21:00,1.0,-6.0,-100.00,NNW,327,16.0,31.0,71,0.00,,,0.00,0.000000,,2013-02-19 08:21:00,
2013-02-19 02:32:00,1.0,-6.0,-100.00,NNW,327,16.0,31.0,71,0.00,,,0.00,0.000000,,2013-02-19 08:32:00,
2013-02-19 02:42:00,1.0,-6.0,-100.00,NNW,327,16.0,31.0,71,0.00,,,0.00,0.000000,,2013-02-19 08:42:00,
2013-02-19 02:51:00,0.0,-7.0,-100.00,NW,322,20.0,31.0,72,0.00,,,0.00,0.000000,,2013-02-19 08:51:00,
2013-02-19 03:11:00,0.0,-7.0,-100.00,NW,322,20.0,31.0,72,0.00,,,0.00,0.000000,,2013-02-19 09:11:00,
2013-02-19 03:22:00,0.0,-7.0,-100.00,NW,322,20.0,31.0,72,0.00,,,0.00,0.000000,,2013-02-19 09:22:00,
2013-02-19 03:32:00,0.0,-7.0,-100.00,NW,322,20.0,31.0,72,0.00,,,0.00,0.000000,,2013-02-19 09:32:00,
2013-02-19 03:42:00,0.0,-7.0,-100.00,NW,322,20.0,31.0,72,0.00,,,0.00,0.000000,,2013-02-19 09:42:00,
2013-02-19 03:51:00,-1.0,-8.0,-100.00,NW,316,20.0,30.0,72,0.00,,,0.00,0.000000,,2013-02-19 09:51:00,
2013-02-19 04:11:00,-1.0,-8.0,-100.00,NW,316,20.0,30.0,72,0.00,,,0.00,0.000000,,2013-02-19 10:11:00,
2013-02-19 04:22:00,-1.0,-8.0,-100.00,NW,316,20.0,30.0,72,0.00,,,0.00,0.000000,,2013-02-19 10:22:00,
2013-02-19 04:32:00,-1.0,-8.0,-100.00,NW,316,20.0,30.0,72,0.00,,,0.00,0.000000,,2013-02-19 10:32:00,
2013-02-19 04:42:00,-1.0,-8.0,-100.00,NW,316,20.0,30.0,72,0.00,,,0.00,0.000000,,2013-02-19 10:42:00,
2013-02-19 04:51:00,-4.0,-10.0,-100.00,NW,312,20.0,28.0,74,0.00,,,0.00,0.000000,,2013-02-19 10:51:00,
2013-02-19 05:22:00,-4.0,-10.0,-100.00,NW,312,20.0,28.0,74,0.00,,,0.00,0.000000,,2013-02-19 11:22:00,
2013-02-19 05:32:00,-4.0,-10.0,-100.00,NW,312,20.0,28.0,74,0.00,,,0.00,0.000000,,2013-02-19 11:32:00,
2013-02-19 05:42:00,-4.0,-10.0,-100.00,NW,312,20.0,28.0,74,0.00,,,0.00,0.000000,,2013-02-19 11:42:00,
2013-02-19 05:51:00,-7.0,-14.0,-100.00,NW,311,20.0,29.0,71,0.00,,,0.00,0.000000,,2013-02-19 11:51:00,
2013-02-19 06:22:00,-7.0,-14.0,-100.00,NW,311,20.0,29.0,71,0.00,,,0.00,0.000000,,2013-02-19 12:22:00,
2013-02-19 06:32:00,-7.0,-14.0,-100.00,NW,311,20.0,29.0,71,0.00,,,0.00,0.000000,,2013-02-19 12:32:00,
2013-02-19 06:42:00,-7.0,-14.0,-100.00,NW,311,20.0,29.0,71,0.00,,,0.00,0.000000,,2013-02-19 12:42:00,
2013-02-19 06:51:00,-8.0,-15.0,-100.00,NW,313,21.0,31.0,69,0.00,,,0.00,0.000000,,2013-02-19 12:51:00,
2013-02-19 07:22:00,-8.0,-15.0,-100.00,NW,313,21.0,31.0,69,0.00,,,0.00,0.000000,,2013-02-19 13:22:00,
2013-02-19 07:32:00,-8.0,-15.0,-100.00,NW,313,21.0,31.0,69,0.00,,,0.00,0.000000,,2013-02-19 13:32:00,
2013-02-19 07:42:00,-8.0,-15.0,-100.00,NW,313,21.0,31.0,69,0.00,,,0.00,0.000000,,2013-02-19 13:42:00,
2013-02-19 07:51:00,-9.0,-17.0,-100.00,NW,314,20.0,27.0,67,0.00,,,0.00,11.000000,,2013-02-19 13:51:00,
2013-02-19 08:11:00,-9.0,-17.0,-100.00,NW,314,20.0,27.0,67,0.00,,,0.00,11.000000,,2013-02-19 14:11:00,
2013-02-19 08:21:00,-9.0,-17.0,-100.00,NW,314,20.0,27.0,67,0.00,,,0.00,11.000000,,2013-02-19 14:21:00,
2013-02-19 08:32:00,-9.0,-17.0,-100.00,NW,314,20.0,27.0,67,0.00,,,0.00,11.000000,,2013-02-19 14:32:00,
2013-02-19 08:42:00,-9.0,-17.0,-100.00,NW,314,20.0,27.0,67,0.00,,,0.00,11.000000,,2013-02-19 14:42:00,
2013-02-19 08:51:00,-9.0,-18.0,-100.00,NW,317,18.0,27.0,63,0.00,,,0.00,136.000000,,2013-02-19 14:51:00,
2013-02-19 09:11:00,-9.0,-18.0,-100.00,NW,317,18.0,27.0,63,0.00,,,0.00,136.000000,,2013-02-19 15:11:00,
2013-02-19 09:21:00,-9.0,-18.0,-100.00,NW,317,18.0,27.0,63,0.00,,,0.00,136.000000,,2013-02-19 15:21:00,
2013-02-19 09:32:00,-9.0,-18.0,-100.00,NW,317,18.0,27.0,63,0.00,,,0.00,136.000000,,2013-02-19 15:32:00,
2013-02-19 09:42:00,-9.0,-18.0,-100.00,NW,317,18.0,27.0,63,0.00,,,0.00,136.000000,,2013-02-19 15:42:00,
2013-02-19 09:51:00,-8.0,-18.0,-100.00,NW,316,19.0,26.0,60,0.00,,,0.00,314.000000,,2013-02-19 15:51:00,
2013-02-19 10:11:00,-8.0,-18.0,-100.00,NW,316,19.0,26.0,60,0.00,,,0.00,314.000000,,2013-02-19 16:11:00,
2013-02-19 10:22:00,-8.0,-18.0,-100.00,NW,316,19.0,26.0,60,0.00,,,0.00,314.000000,,2013-02-19 16:22:00,
2013-02-19 10:32:00,-8.0,-18.0,-100.00,NW,316,19.0,26.0,60,0.00,,,0.00,314.000000,,2013-02-19 16:32:00,
2013-02-19 10:41:00,-8.0,-18.0,-100.00,NW,316,19.0,26.0,60,0.00,,,0.00,314.000000,,2013-02-19 16:41:00,
2013-02-19 10:51:00,-7.0,-18.0,-100.00,NW,319,20.0,28.0,59,0.00,,,0.00,449.000000,,2013-02-19 16:51:00,
2013-02-19 11:11:00,-7.0,-18.0,-100.00,NW,319,20.0,28.0,59,0.00,,,0.00,449.000000,,2013-02-19 17:11:00,
2013-02-19 11:21:00,-7.0,-18.0,-100.00,NW,319,20.0,28.0,59,0.00,,,0.00,449.000000,,2013-02-19 17:21:00,
2013-02-19 11:32:00,-7.0,-18.0,-100.00,NW,319,20.0,28.0,59,0.00,,,0.00,449.000000,,2013-02-19 17:32:00,
2013-02-19 11:42:00,-7.0,-18.0,-100.00,NW,319,20.0,28.0,59,0.00,,,0.00,449.000000,,2013-02-19 17:42:00,
2013-02-19 11:51:00,-6.0,-17.0,-100.00,NW,321,16.0,27.0,59,0.00,,,0.00,567.000000,,2013-02-19 17:51:00,
2013-02-19 12:21:00,-6.0,-17.0,-100.00,NW,321,16.0,27.0,59,0.00,,,0.00,567.000000,,2013-02-19 18:21:00,
2013-02-19 12:32:00,-6.0,-17.0,-100.00,NW,321,16.0,27.0,59,0.00,,,0.00,567.000000,,2013-02-19 18:32:00,
2013-02-19 12:42:00,-6.0,-17.0,-100.00,NW,321,16.0,27.0,59,0.00,,,0.00,567.000000,,2013-02-19 18:42:00,
2013-02-19 12:51:00,-4.0,-14.0,-100.00,NW,316,18.0,26.0,62,0.00,,,0.00,623.000000,,2013-02-19 18:51:00,
2013-02-19 13:21:00,-4.0,-14.0,-100.00,NW,316,18.0,26.0,62,0.00,,,0.00,623.000000,,2013-02-19 19:21:00,
2013-02-19 13:32:00,-4.0,-14.0,-100.00,NW,316,18.0,26.0,62,0.00,,,0.00,623.000000,,2013-02-19 19:32:00,
2013-02-19 13:42:00,-4.0,-14.0,-100.00,NW,316,18.0,26.0,62,0.00,,,0.00,623.000000,,2013-02-19 19:42:00,
2013-02-19 13:51:00,-3.0,-14.0,-100.00,NW,322,18.0,26.0,58,0.00,,,0.00,640.000000,,2013-02-19 19:51:00,
2013-02-19 14:21:00,-3.0,-14.0,-100.00,NW,322,18.0,26.0,58,0.00,,,0.00,640.000000,,2013-02-19 20:21:00,
2013-02-19 14:32:00,-3.0,-14.0,-100.00,NW,322,18.0,26.0,58,0.00,,,0.00,640.000000,,2013-02-19 20:32:00,
2013-02-19 14:42:00,-3.0,-14.0,-100.00,NW,322,18.0,26.0,58,0.00,,,0.00,640.000000,,2013-02-19 20:42:00,
2013-02-19 14:51:00,-3.0,-13.0,-100.00,NW,318,18.0,26.0,60,0.00,,,0.00,576.000000,,2013-02-19 20:51:00,
2013-02-19 15:11:00,-3.0,-13.0,-100.00,NW,318,18.0,26.0,60,0.00,,,0.00,576.000000,,2013-02-19 21:11:00,
2013-02-19 15:21:00,-3.0,-13.0,-100.00,NW,318,18.0,26.0,60,0.00,,,0.00,576.000000,,2013-02-19 21:21:00,
2013-02-19 15:32:00,-3.0,-13.0,-100.00,NW,318,18.0,26.0,60,0.00,,,0.00,576.000000,,2013-02-19 21:32:00,
2013-02-19 15:42:00,-3.0,-13.0,-100.00,NW,318,18.0,26.0,60,0.00,,,0.00,576.000000,,2013-02-19 21:42:00,
2013-02-19 15:51:00,-2.0,-12.0,-100.00,NW,322,15.0,25.0,60,0.00,,,0.00,452.000000,,2013-02-19 21:51:00,
2013-02-19 16:21:00,-2.0,-12.0,-100.00,NW,322,15.0,25.0,60,0.00,,,0.00,452.000000,,2013-02-19 22:21:00,
2013-02-19 16:32:00,-2.0,-12.0,-100.00,NW,322,15.0,25.0,60,0.00,,,0.00,452.000000,,2013-02-19 22:32:00,
2013-02-19 16:41:00,-2.0,-12.0,-100.00,NW,322,15.0,25.0,60,0.00,,,0.00,452.000000,,2013-02-19 22:41:00,
2013-02-19 16:51:00,-2.0,-11.0,-100.00,NW,319,14.0,24.0,64,0.00,,,0.00,280.000000,,2013-02-19 22:51:00,
2013-02-19 17:11:00,-2.0,-11.0,-100.00,NW,319,14.0,24.0,64,0.00,,,0.00,280.000000,,2013-02-19 23:11:00,
2013-02-19 17:21:00,-2.0,-11.0,-100.00,NW,319,14.0,24.0,64,0.00,,,0.00,280.000000,,2013-02-19 23:21:00,
2013-02-19 17:32:00,-2.0,-11.0,-100.00,NW,319,14.0,24.0,64,0.00,,,0.00,280.000000,,2013-02-19 23:32:00,
2013-02-19 17:42:00,-2.0,-11.0,-100.00,NW,319,14.0,24.0,64,0.00,,,0.00,280.000000,,2013-02-19 23:42:00,
2013-02-19 17:51:00,-4.0,-12.0,-100.00,NNW,332,12.0,23.0,66,0.00,,,0.00,98.000000,,2013-02-19 23:51:00,
2013-02-19 18:11:00,-4.0,-12.0,-100.00,NNW,332,12.0,23.0,66,0.00,,,0.00,98.000000,,2013-02-20 00:11:00,
2013-02-19 18:21:00,-4.0,-12.0,-100.00,NNW,332,12.0,23.0,66,0.00,,,0.00,98.000000,,2013-02-20 00:21:00,
2013-02-19 18:32:00,-4.0,-12.0,-100.00,NNW,332,12.0,23.0,66,0.00,,,0.00,98.000000,,2013-02-20 00:32:00,
2013-02-19 18:42:00,-4.0,-12.0,-100.00,NNW,332,12.0,23.0,66,0.00,,,0.00,98.000000,,2013-02-20 00:42:00,
2013-02-19 18:51:00,-7.0,-15.0,-100.00,NNW,329,6.0,17.0,66,0.00,,,0.00,2.000000,,2013-02-20 00:51:00,
2013-02-19 19:11:00,-7.0,-15.0,-100.00,NNW,329,6.0,17.0,66,0.00,,,0.00,2.000000,,2013-02-20 01:11:00,
2013-02-19 19:21:00,-7.0,-15.0,-100.00,NNW,329,6.0,17.0,66,0.00,,,0.00,2.000000,,2013-02-20 01:21:00,
2013-02-19 19:32:00,-7.0,-15.0,-100.00,NNW,329,6.0,17.0,66,0.00,,,0.00,2.000000,,2013-02-20 01:32:00,
2013-02-19 19:42:00,-7.0,-15.0,-100.00,NNW,329,6.0,17.0,66,0.00,,,0.00,2.000000,,2013-02-20 01:42:00,
2013-02-19 19:51:00,-8.0,-16.0,-100.00,NW,324,11.0,15.0,66,0.00,,,0.00,0.000000,,2013-02-20 01:51:00,
2013-02-19 20:21:00,-8.0,-16.0,-100.00,NW,324,11.0,15.0,66,0.00,,,0.00,0.000000,,2013-02-20 02:21:00,
2013-02-19 20:32:00,-8.0,-16.0,-100.00,NW,324,11.0,15.0,66,0.00,,,0.00,0.000000,,2013-02-20 02:32:00,
2013-02-19 20:42:00,-8.0,-16.0,-100.00,NW,324,11.0,15.0,66,0.00,,,0.00,0.000000,,2013-02-20 02:42:00,
2013-02-19 20:51:00,-10.0,-18.0,-100.00,NW,315,7.0,16.0,67,0.00,,,0.00,0.000000,,2013-02-20 02:51:00,
2013-02-19 21:22:00,-10.0,-18.0,-100.00,NW,315,7.0,16.0,67,0.00,,,0.00,0.000000,,2013-02-20 03:22:00,
2013-02-19 21:32:00,-10.0,-18.0,-100.00,NW,315,7.0,16.0,67,0.00,,,0.00,0.000000,,2013-02-20 03:32:00,
2013-02-19 21:42:00,-10.0,-18.0,-100.00,NW,315,7.0,16.0,67,0.00,,,0.00,0.000000,,2013-02-20 03:42:00,
2013-02-19 21:51:00,-10.0,-18.0,-100.00,NW,326,8.0,13.0,68,0.00,,,0.00,0.000000,,2013-02-20 03:51:00,
2013-02-19 22:11:00,-10.0,-18.0,-100.00,NW,326,8.0,13.0,68,0.00,,,0.00,0.000000,,2013-02-20 04:11:00,
2013-02-19 22:21:00,-10.0,-18.0,-100.00,NW,326,8.0,13.0,68,0.00,,,0.00,0.000000,,2013-02-20 04:21:00,
2013-02-19 22:31:00,-10.0,-18.0,-100.00,NW,326,8.0,13.0,68,0.00,,,0.00,0.000000,,2013-02-20 04:31:00,
2013-02-19 22:42:00,-10.0,-18.0,-100.00,NW,326,8.0,13.0,68,0.00,,,0.00,0.000000,,2013-02-20 04:42:00,
2013-02-19 22:51:00,-11.0,-19.0,-100.00,NW,319,7.0,12.0,67,0.00,,,0.00,0.000000,,2013-02-20 04:51:00,
2013-02-19 23:12:00,-11.0,-19.0,-100.00,NW,319,7.0,12.0,67,0.00,,,0.00,0.000000,,2013-02-20 05:12:00,
2013-02-19 23:22:00,-11.0,-19.0,-100.00,NW,319,7.0,12.0,67,0.00,,,0.00,0.000000,,2013-02-20 05:22:00,
2013-02-19 23:32:00,-11.0,-19.0,-100.00,NW,319,7.0,12.0,67,0.00,,,0.00,0.000000,,2013-02-20 05:32:00,
2013-02-19 23:43:00,-11.0,-19.0,-100.00,NW,319,7.0,12.0,67,0.00,,,0.00,0.000000,,2013-02-20 05:43:00,
2013-02-19 23:51:00,-12.0,-20.0,-100.00,NW,320,7.0,11.0,68,0.00,,,0.00,0.000000,,2013-02-20 05:51:00,